Tracking 35331 objects as of 14-Sep-2026
HD Live streaming from Space Station
objects crossing your sky now

NOAA 16 DEB

Track NOAA 16 DEB now!
10-day predictions


NORAD ID: 41419
Int'l Code: 2000-055KY
Launch date: September 21, 2000
Source: United States (US)
Launch site: AIR FORCE WESTERN TEST RANGE (AFWTR)

Note: This is SATELLITE DEBRIS
Your satellite tracking list
Your tracking list is empty




NASA's NSSDC Master Catalog

Two Line Element Set (TLE):
1 41419U 00055KY  26256.88424463  .00030799  00000-0  40483-2 0  9998
2 41419  98.8363  46.1818 0010149 137.3041 222.8958 14.80106787547958
Source of the keplerian elements: AFSPC